Weather Roundup
Issued by NWS Corpus Christi, TX

Home | Current Version | Previous Version | Text Only | Print | Product List | Glossary On
Versions: 1 2 3 4 5 6 7 8 9 10 11 12 13 14 15 16 17 18 19 20 21 22 23 24 25 26 27 28 29 30 31 32 33 34 35 36 37 38 39 40 41 42 43 44 45 46 47 48 49 50
000
ASUS44 KCRP 310610
HRRCRP

SOUTH TEXAS REGIONAL WEATHER ROUNDUP
NATIONAL WEATHER SERVICE CORPUS CHRISTI TX
100 AM CDT SUN AUG 31 2014


TXZ229>244-310700-
...CORPUS CHRISTI AREA OBSERVATIONS...

CITY           SKY/WX    TMP DP  RH WIND       PRES   REMARKS
CORPUS CHRISTI MOCLDY    78  76  93 SE5       29.95R
NAS CORPUS CHR FAIR      82  78  88 S8        29.94S HX  91
ROCKPORT       FAIR      82  75  79 S6        29.94F
KINGSVILLE NAS FAIR      78  78 100 CALM      29.95R
ALICE          FAIR      77  75  93 S3        29.94S
FALFURRIAS     FAIR      69  66  91 CALM      29.94S
$$

...VICTORIA AREA OBSERVATIONS...

CITY           SKY/WX    TMP DP  RH WIND       PRES   REMARKS
VICTORIA       FAIR      79  74  84 S5        29.96F
BEEVILLE       FAIR      77  76  95 CALM      29.96R
PLEASANTON     MOCLDY    79  72  79 SE8       29.96S
SAN ANTONIO    FAIR      80  72  76 S14       29.97F
$$

...LAREDO AREA OBSERVATIONS...

CITY           SKY/WX    TMP DP  RH WIND       PRES   REMARKS
LAREDO         FAIR      82  74  77 SE10      29.95F
COTULLA        FAIR      80  71  74 SE10      29.95R
DEL RIO        FAIR      88  67  49 SE14      29.91R HX  91
MCALLEN        FAIR      80  78  94 SE5       29.93S
HEBBRONVILLE   CLOUDY    79  74  86 SE9       29.96S
$$

...OTHER TEXAS OBSERVATIONS...

CITY           SKY/WX    TMP DP  RH WIND       PRES   REMARKS
BROWNSVILLE    FAIR      81  79  94 SE7       29.93F
HOUSTON        MOCLDY    79  73  83 S3        29.97F
COL. STATION   FAIR      78  72  81 S7        29.96F
AUSTIN         FAIR      78  73  84 S9        29.96S
WACO           FAIR      81  71  71 S12       29.94S
FORT WORTH     FAIR      82  68  62 S9        29.92F
WICHITA FALLS  FAIR      79  68  69 S10       29.91F
LUBBOCK        FAIR      74  54  49 SE12      30.01S
EL PASO        CLEAR     78  49  35 SE5       29.99S
$$

...MARINE OBSERVATIONS...

STATION/POSITION TIME  SKY/WX   TEMP    WIND        PRES    VSBY  WAVE   SWELL
                                AIR SEA DIR/SP/G                  HT/PER HT/PER
                 (UTC)          (F)     (DEG/KT/KT) (MB)    (MI)  (FT/S) (FT/S)
PORT ARANSAS     0600            83 83  140/ 12/ 14 1014.4S
BUOY 90 E PORT A 0600            85 85  140/ 17/ 19 1014.4F         4/ 8   2/ 8
BUOY 45 SE BAFFI 0600            84 85  140/ 16/ 19 1013.1S         5/ 8   3/ 8
BUOY 200 E PT IS 0600            85 86  120/ 12/ 14 1014.6F         4/ 7   3/ 7
BUOY 15 E GALVES 0600            82 85  170/ 12/ 14 1014.4F         4/ 8   3/ 8
$$


USA.gov is the U.S. government's official web portal to all federal, state and local government web resources and services.